Shelby, NC

2:23 AM EDT on June 23, 2017 (GMT -0400)
Shelby Municipal

Weather History for KEHO - June, 2013

Change the Weather History Date:

Thursday, June 13, 2013

  Actual Average (KHKY) Record (KHKY)
Temperature  
Mean Temperature 82 °F -  
Max Temperature 92 °F 83 °F 96 °F (1958)
Min Temperature 71 °F 62 °F 52 °F (1972)
Cooling Degree Days 16    
Growing Degree Days 32 (Base 50)    
Moisture  
Dew Point 68 °F    
Average Humidity 68    
Maximum Humidity 93    
Minimum Humidity 39    
Precipitation  
Precipitation 0.00 in - - ()
Sea Level Pressure  
Sea Level Pressure 29.81 in    
Wind  
Wind Speed 6 mph (WSW)    
Max Wind Speed 23 mph    
Max Gust Speed 28 mph    
Visibility 10 miles    
Events Rain    
Averages and records for this station are not official NWS values.
T = Trace of Precipitation, MM = Missing Value Source: NWS Daily Summary

Daily Weather History Graph

Daily Weather History Graph

Search for Another Location

Airport or City:

Trip Planner

Search our weather history database for the weather conditions in past years. The results will help you decide how hot, cold, wet, or windy it might be!

Date:

Astronomy

Jun. 13, 2013 Rise Set
Actual Time 6:11 AM EDT 8:42 PM EDT
Civil Twilight 5:41 AM EDT 9:11 PM EDT
Nautical Twilight 5:04 AM EDT 9:48 PM EDT
Astronomical Twilight 4:23 AM EDT 10:29 PM EDT
Moon 10:38 AM EDT (6/13) 11:57 PM EDT (6/13)
Length of Visible Light 15h 30m
Length of Day
14h 30m
Waxing Crescent, 21% of the Moon is Illuminated
Jun 13
Waxing Crescent
Jun 16
First Quarter
Jun 23
Full
Jun 30
Last Quarter
Jul 8
New

Hourly Weather History & Observations

Time (EDT) Temp. Heat Index Dew Point Humidity Pressure Visibility Wind Dir Wind Speed Gust Speed Precip Events Conditions
12:15 AM 79.3 °F - 73.4 °F 82% 29.92 in 10.0 mi SSW 4.6 mph - N/A   Clear
12:35 AM 77.5 °F - 72.9 °F 85% 29.92 in 10.0 mi SW 4.6 mph - N/A   Clear
12:55 AM 77.5 °F - 72.7 °F 85% 29.91 in 10.0 mi WSW 5.8 mph - N/A   Clear
1:15 AM 78.1 °F - 72.3 °F 82% 29.91 in 10.0 mi WSW 3.5 mph - N/A   Clear
1:35 AM 77.9 °F - 72.1 °F 82% 29.90 in 10.0 mi WSW 3.5 mph - N/A   Clear
1:55 AM 76.1 °F - 71.8 °F 86% 29.90 in 10.0 mi SW 4.6 mph - N/A   Clear
2:15 AM 77.5 °F - 72.3 °F 84% 29.89 in 10.0 mi SW 4.6 mph - N/A   Clear
2:35 AM 77.0 °F - 72.1 °F 85% 29.90 in 10.0 mi SSW 3.5 mph - N/A   Clear
2:55 AM 76.1 °F - 72.5 °F 89% 29.89 in 10.0 mi Calm Calm - N/A   Clear
3:15 AM 76.3 °F - 72.0 °F 86% 29.89 in 10.0 mi Calm Calm - N/A   Clear
3:35 AM 74.7 °F - 71.6 °F 90% 29.89 in 10.0 mi West 3.5 mph - N/A   Clear
3:55 AM 75.2 °F - 72.0 °F 90% 29.89 in 10.0 mi Calm Calm - N/A   Clear
4:15 AM 76.1 °F - 72.0 °F 87% 29.88 in 10.0 mi South 3.5 mph - N/A   Clear
4:35 AM 74.3 °F - 71.6 °F 91% 29.87 in 10.0 mi SSW 4.6 mph - N/A   Clear
4:55 AM 74.3 °F - 71.2 °F 90% 29.88 in 10.0 mi SW 3.5 mph - N/A   Clear
5:15 AM 74.3 °F - 71.1 °F 90% 29.87 in 10.0 mi SSW 3.5 mph - N/A   Clear
5:35 AM 74.3 °F - 70.7 °F 88% 29.87 in 10.0 mi Calm Calm - N/A   Clear
5:55 AM 72.7 °F - 70.5 °F 93% 29.86 in 10.0 mi SW 3.5 mph - N/A   Clear
6:15 AM 71.2 °F - 69.1 °F 93% 29.86 in 10.0 mi WSW 4.6 mph - N/A   Clear
6:35 AM 72.3 °F - 69.4 °F 91% 29.86 in 10.0 mi SW 6.9 mph - N/A   Clear
6:55 AM 72.3 °F - 69.3 °F 90% 29.86 in 10.0 mi WSW 3.5 mph - N/A   Clear
7:15 AM 72.5 °F - 69.1 °F 89% 29.86 in 10.0 mi West 3.5 mph - N/A   Clear
7:35 AM 74.1 °F - 69.3 °F 85% 29.86 in 10.0 mi WSW 3.5 mph - N/A   Clear
7:55 AM 76.1 °F - 69.3 °F 79% 29.86 in 10.0 mi WSW 4.6 mph - N/A   Clear
8:15 AM 76.1 °F - 68.7 °F 78% 29.85 in 10.0 mi WSW 4.6 mph - N/A   Clear
8:35 AM 77.4 °F - 69.1 °F 76% 29.85 in 10.0 mi WSW 4.6 mph - N/A   Clear
8:55 AM 78.4 °F - 68.7 °F 72% 29.85 in 10.0 mi SW 5.8 mph - N/A   Clear
9:15 AM 79.9 °F - 68.9 °F 69% 29.84 in 10.0 mi SW 4.6 mph - N/A   Clear
9:35 AM 81.1 °F 84.4 °F 69.3 °F 67% 29.84 in 10.0 mi SW 5.8 mph - N/A   Clear
9:55 AM 82.9 °F 86.0 °F 68.4 °F 61% 29.84 in 10.0 mi SW 8.1 mph - N/A   Clear
10:15 AM 84.2 °F 87.1 °F 67.6 °F 57% 29.83 in 10.0 mi SW 8.1 mph - N/A   Clear
10:35 AM 84.9 °F 87.9 °F 67.5 °F 56% 29.82 in 10.0 mi SSW 5.8 mph - N/A   Clear
10:55 AM 85.8 °F 87.9 °F 65.8 °F 51% 29.82 in 10.0 mi SW 10.4 mph - N/A   Clear
11:15 AM 86.7 °F 88.7 °F 65.5 °F 49% 29.82 in 10.0 mi SSW 9.2 mph - N/A   Clear
11:35 AM 86.5 °F 89.3 °F 66.7 °F 52% 29.81 in 10.0 mi South 11.5 mph - N/A   Clear
11:55 AM 87.6 °F 90.8 °F 67.6 °F 51% 29.81 in 10.0 mi SSW 11.5 mph - N/A   Clear
12:15 PM 88.0 °F 91.0 °F 67.3 °F 50% 29.80 in 10.0 mi SW 10.4 mph - N/A   Clear
12:35 PM 89.1 °F 91.0 °F 65.5 °F 45% 29.79 in 10.0 mi SSW 12.7 mph 16.1 mph N/A   Clear
12:55 PM 88.7 °F 91.1 °F 65.8 °F 47% 29.78 in 10.0 mi SW 12.7 mph 18.4 mph N/A   Clear
1:15 PM 90.0 °F 92.8 °F 66.7 °F 46% 29.77 in 10.0 mi SW 13.8 mph - N/A   Clear
1:35 PM 90.0 °F 92.0 °F 65.7 °F 44% 29.77 in 10.0 mi SW 16.1 mph 20.7 mph N/A   Clear
1:55 PM 90.7 °F 93.6 °F 66.7 °F 45% 29.75 in 10.0 mi SSW 16.1 mph - N/A   Clear
2:15 PM 90.7 °F 94.5 °F 68.0 °F 47% 29.74 in 10.0 mi SSW 11.5 mph 21.9 mph N/A   Clear
2:35 PM 90.9 °F 93.1 °F 65.5 °F 43% 29.75 in 10.0 mi SW 17.3 mph 24.2 mph N/A   Clear
2:55 PM 91.8 °F 93.8 °F 65.1 °F 41% 29.73 in 10.0 mi SSW 15.0 mph 21.9 mph N/A   Clear
3:15 PM 91.8 °F 94.2 °F 65.7 °F 42% 29.74 in 10.0 mi SW 23.0 mph 27.6 mph N/A   Clear
3:35 PM 92.1 °F 93.6 °F 64.0 °F 39% 29.74 in 10.0 mi WSW 18.4 mph 27.6 mph N/A   Clear
3:55 PM 90.3 °F 92.2 °F 64.8 °F 43% 29.71 in 10.0 mi SW 16.1 mph 19.6 mph N/A   Clear
4:15 PM 90.0 °F 92.4 °F 66.0 °F 45% 29.71 in 10.0 mi SW 15.0 mph 21.9 mph N/A   Clear
4:35 PM 88.2 °F 91.3 °F 67.5 °F 50% 29.71 in 10.0 mi SW 12.7 mph 19.6 mph N/A   Scattered Clouds
4:55 PM 87.3 °F 89.2 °F 65.7 °F 48% 29.73 in 10.0 mi West 9.2 mph 17.3 mph N/A   Mostly Cloudy
5:15 PM 87.1 °F 89.5 °F 66.6 °F 50% 29.73 in 10.0 mi West 9.2 mph - N/A   Scattered Clouds
5:35 PM 84.0 °F 85.4 °F 64.0 °F 51% 29.75 in 10.0 mi NW 11.5 mph - N/A Rain Rain
5:55 PM 80.4 °F 83.1 °F 68.0 °F 66% 29.73 in 10.0 mi West 6.9 mph - N/A Rain Light Rain
6:15 PM 79.0 °F - 67.5 °F 68% 29.73 in 10.0 mi NW 8.1 mph - N/A   Scattered Clouds
6:35 PM 78.1 °F - 65.7 °F 65% 29.73 in 10.0 mi WNW 9.2 mph - N/A   Clear
6:55 PM 77.9 °F - 66.2 °F 67% 29.74 in 10.0 mi West 4.6 mph - N/A   Scattered Clouds
7:15 PM 77.5 °F - 66.0 °F 68% 29.76 in 10.0 mi West 8.1 mph - N/A   Mostly Cloudy
7:35 PM 77.5 °F - 65.7 °F 67% 29.75 in 10.0 mi West 10.4 mph - N/A   Scattered Clouds
7:55 PM 77.9 °F - 65.1 °F 65% 29.76 in 10.0 mi WNW 5.8 mph - N/A   Clear
8:15 PM 77.5 °F - 64.0 °F 63% 29.77 in 10.0 mi West 4.6 mph - N/A   Scattered Clouds
8:35 PM 77.5 °F - 64.0 °F 63% 29.77 in 10.0 mi NW 5.8 mph - N/A   Scattered Clouds
8:55 PM 76.1 °F - 64.4 °F 67% 29.79 in 10.0 mi Calm Calm - N/A   Clear
9:15 PM 76.1 °F - 65.1 °F 69% 29.77 in 10.0 mi West 4.6 mph - N/A   Clear
9:35 PM 74.3 °F - 64.4 °F 71% 29.78 in 10.0 mi West 4.6 mph - N/A   Clear
9:55 PM 74.3 °F - 64.0 °F 70% 29.79 in 10.0 mi West 4.6 mph - N/A   Clear
10:15 PM 73.2 °F - 64.4 °F 74% 29.78 in 10.0 mi North 3.5 mph - N/A   Clear
10:35 PM 72.5 °F - 64.4 °F 76% 29.79 in 10.0 mi West 4.6 mph - N/A   Clear
10:55 PM 72.5 °F - 64.0 °F 75% 29.79 in 10.0 mi SW 5.8 mph - N/A   Clear
11:15 PM 71.6 °F - 64.2 °F 77% 29.80 in 10.0 mi WSW 4.6 mph - N/A   Clear
11:35 PM 71.8 °F - 63.7 °F 76% 29.80 in 10.0 mi West 6.9 mph - N/A   Clear
11:55 PM 73.6 °F - 62.2 °F 68% 29.81 in 10.0 mi West 6.9 mph - N/A   Clear